Wind_Speed
29 28 26 25 25 26 27 27 26 26 27 28 28 28 28 27 26 26 27 27 27 27 24 21 20 20 19 17 16 16 17 20 23 26 30 33 32 31 27 24 24 22 16 12 13 15 14 14 15 14 11 6 4 5 5 5 5 4 3 2 2 3 4 5 6 6 4 1 2 7 11 9 4 9 10 6 8 9 11 14 12 14 17 11 6 6 6 10
28 28 27 25 25 25 26 26 26 26 26 27 27 28 28 28 27 26 26 26 26 27 26 23 20 20 19 18 17 16 17 20 22 28 34 33 31 31 28 25 24 23 19 13 12 15 15 13 13 13 11 6 4 5 6 6 6 4 3 2 4 4 4 6 7 7 4 1 3 8 10 9 5 9 12 6 6 8 9 12 12 13 17 16 11 9 9 10
28 28 28 26 25 26 26 26 26 26 26 27 27 27 28 28 28 26 26 26 26 27 27 24 21 20 19 19 16 15 17 19 23 31 34 32 33 32 29 28 26 23 21 16 13 15 15 13 11 11 10 7 5 6 6 5 6 3 3 2 5 5 4 5 7 7 5 2 1 6 9 8 6 9 12 7 5 6 8 12 13 15 19 18 15 12 12 12
28 28 28 26 25 26 26 27 27 26 26 26 27 27 28 28 28 28 26 26 26 26 27 25 22 21 20 19 17 17 16 15 23 33 32 32 34 33 30 29 27 24 22 19 15 15 16 14 11 9 8 7 5 5 5 7 6 3 5 4 4 5 3 5 8 6 5 4 2 5 7 6 7 10 12 9 5 3 12 19 19 19 18 18 18 15 14 14
30 28 28 27 26 26 26 27 27 26 27 27 27 27 28 28 29 28 26 26 26 26 27 25 23 22 22 20 19 19 14 6 12 23 27 30 34 34 32 29 27 25 23 21 18 15 16 15 12 9 6 5 4 3 4 9 7 3 4 4 3 5 2 5 8 7 5 3 2 5 5 5 8 10 14 13 7 7 16 21 21 20 17 16 17 17 16 16
31 29 28 28 27 26 26 26 26 26 27 27 27 27 27 28 29 29 27 27 26 26 26 26 25 23 23 21 21 22 19 6 3 4 15 22 29 33 33 30 28 27 25 23 20 17 16 17 13 8 7 4 5 5 5 9 8 3 4 3 5 6 3 3 4 5 4 3 3 3 3 5 7 7 14 17 15 15 13 11 14 16 18 17 16 17 18 18
32 30 28 28 28 27 26 26 26 27 27 28 27 27 27 28 29 29 28 27 26 26 26 26 25 24 23 21 22 24 28 21 3 5 5 8 22 31 31 31 30 29 28 26 24 19 16 17 15 9 7 3 5 8 6 7 8 5 3 4 7 8 8 6 3 3 3 3 3 2 3 5 7 5 8 16 20 20 14 9 8 10 14 18 18 18 18 18
33 31 29 28 28 27 27 26 26 26 27 28 28 27 27 28 28 29 28 27 26 26 26 26 26 25 23 23 25 26 33 35 18 5 9 2 17 27 29 32 31 31 30 28 26 22 17 18 19 13 6 4 6 7 7 5 4 6 5 4 5 7 12 11 9 9 9 8 7 5 5 8 8 6 7 14 18 17 18 17 13 10 11 15 19 20 20 20
35 33 31 30 29 28 27 26 26 26 27 28 28 27 27 27 28 29 28 27 26 26 26 27 27 26 23 26 28 22 30 37 27 17 9 4 13 25 30 33 34 32 31 29 27 25 20 19 23 18 7 7 9 5 7 6 3 7 11 8 4 6 9 10 12 13 13 11 9 6 7 11 10 6 11 18 19 17 18 19 18 15 12 13 17 20 21 22
36 33 32 31 30 28 27 27 26 26 27 28 28 27 27 28 28 28 28 27 26 25 26 26 26 26 23 28 28 17 23 30 26 24 13 4 9 22 29 31 33 34 32 31 30 28 25 20 22 22 10 7 9 6 7 8 5 8 11 11 10 12 9 7 9 10 10 9 9 8 8 12 8 4 8 10 13 17 18 17 17 17 15 14 16 19 21 22
36 34 32 31 30 29 28 28 27 27 27 28 28 28 27 28 27 28 28 27 26 25 26 26 26 26 24 28 26 15 18 25 25 25 17 7 7 17 27 29 31 35 33 32 32 31 28 21 21 21 10 4 6 4 6 9 9 8 7 6 10 14 11 9 9 9 7 5 9 8 6 9 3 5 9 4 6 13 15 16 17 18 17 16 16 18 20 21
37 35 33 32 31 29 28 28 27 27 28 28 28 28 27 28 27 27 28 27 27 25 25 26 25 26 25 26 29 23 19 22 22 23 23 16 6 9 21 28 28 31 32 32 33 31 28 23 23 21 10 5 5 1 4 11 12 9 5 4 7 7 7 11 11 10 7 3 7 4 4 6 4 12 16 8 8 11 12 15 17 19 19 18 18 18 20 21
38 36 34 32 31 30 29 28 27 27 28 28 28 28 27 27 27 26 27 27 27 25 25 25 23 25 24 22 28 29 25 24 20 20 27 25 13 7 15 25 27 27 29 30 31 30 29 25 24 22 13 8 7 4 2 5 9 7 4 2 5 5 5 10 12 7 7 6 6 5 3 6 6 20 24 12 12 13 14 17 17 19 20 20 20 21 22 22
38 37 35 33 32 30 29 28 28 27 27 28 28 27 27 26 26 26 26 26 26 25 24 23 22 22 23 24 24 22 24 27 23 21 26 29 23 13 13 21 26 26 26 27 27 28 29 27 24 21 14 9 7 6 0 1 3 3 1 1 3 5 4 6 9 9 7 7 9 9 6 8 7 18 22 18 18 16 17 21 20 21 21 22 22 23 26 26
39 38 36 34 32 31 30 28 28 27 27 28 28 27 26 25 26 26 26 25 25 24 23 22 22 19 15 22 26 20 20 26 26 24 27 30 30 22 14 18 23 25 24 24 24 26 28 27 23 15 9 9 7 5 1 2 1 1 3 2 2 5 4 5 6 13 10 6 10 11 5 7 9 17 19 19 20 18 20 23 23 25 25 25 26 27 29 29
39 38 36 34 32 30 29 29 28 27 27 27 27 26 26 25 24 25 25 24 23 24 23 21 24 20 8 12 22 24 23 25 26 26 27 29 30 29 19 14 20 24 24 23 21 24 25 24 19 10 6 6 6 4 3 1 3 2 5 4 2 4 4 4 4 12 15 7 7 10 6 5 6 12 16 19 21 21 22 26 27 29 29 28 28 29 30 30
39 39 37 35 33 31 30 29 28 27 27 27 26 25 25 24 23 24 24 24 23 24 24 20 22 20 10 10 14 20 25 25 26 29 29 28 26 29 25 18 20 23 24 23 19 19 21 19 13 6 4 3 3 5 4 8 9 4 3 5 3 3 4 3 3 7 13 7 6 10 9 10 7 4 7 12 20 22 22 28 30 29 29 29 29 30 31 33
41 39 37 35 33 31 30 29 28 27 27 26 25 24 24 23 23 24 24 25 23 22 21 19 19 14 12 20 17 16 25 25 25 31 30 27 24 24 27 23 21 23 21 17 15 17 16 13 9 4 3 4 4 7 10 9 7 8 6 5 3 1 4 7 3 5 9 6 7 7 7 14 13 8 8 9 13 18 23 28 28 27 29 29 29 30 31 32
41 38 37 35 33 32 30 29 28 27 28 26 24 24 24 23 22 23 24 25 21 15 11 18 26 13 5 22 25 16 21 22 23 32 33 30 25 21 25 25 23 24 18 10 11 18 15 7 6 5 7 11 11 12 14 5 3 8 8 5 5 5 6 7 4 5 8 6 8 9 9 13 14 11 12 14 14 15 20 24 24 25 27 28 28 30 31 33
41 39 38 35 33 32 30 29 27 28 28 26 27 26 22 20 13 14 24 28 31 23 7 19 39 23 4 7 26 20 18 22 23 31 35 31 27 24 25 25 24 21 14 8 7 14 15 7 6 11 15 16 15 15 14 6 2 3 7 7 9 9 7 6 5 4 7 7 7 10 11 14 16 10 11 20 20 16 18 21 24 27 29 31 32 35 38 41
42 40 39 36 34 32 30 29 27 28 29 28 31 28 24 27 14 9 24 27 34 36 16 14 36 31 4 3 25 25 17 20 22 27 32 32 30 24 22 24 17 11 12 12 9 9 12 8 12 19 17 14 15 14 13 12 5 2 3 6 8 9 7 6 6 5 6 5 5 6 9 13 17 12 12 18 15 16 22 23 26 32 35 36 37 41 44 45
42 40 39 37 34 33 30 29 28 28 29 29 33 32 30 37 23 9 20 14 19 37 26 14 26 33 20 9 22 28 18 17 20 25 29 32 32 22 19 20 12 9 12 12 9 6 7 11 19 19 12 10 12 13 12 12 9 2 1 3 4 5 3 3 4 3 4 4 4 5 8 11 15 13 13 16 14 19 29 29 31 35 36 37 38 42 44 45
43 40 39 37 34 33 30 29 28 28 31 32 37 39 34 38 28 9 13 8 7 27 30 19 22 30 26 15 19 27 19 13 16 24 31 32 32 28 22 15 12 12 12 12 11 9 8 14 18 12 10 13 11 10 10 8 8 7 5 4 3 3 3 3 3 3 4 3 2 4 7 8 11 11 9 15 21 25 31 32 35 37 36 38 41 42 43 44
43 41 39 38 34 33 30 28 29 30 34 36 38 42 34 33 30 13 10 5 2 15 26 24 23 26 25 17 17 24 20 15 15 23 34 34 30 27 22 17 14 12 10 15 16 14 12 9 10 12 12 15 10 7 10 8 8 10 10 9 5 3 4 3 1 2 2 2 1 2 8 8 9 14 11 13 20 24 29 29 31 36 38 41 43 43 45 45
44 41 39 38 35 33 30 27 32 34 34 36 38 40 34 29 29 20 8 1 2 5 15 22 21 21 25 20 18 22 20 17 18 22 32 37 31 19 17 19 15 10 12 17 15 14 15 9 16 16 11 11 10 9 13 12 8 10 13 13 8 5 4 3 3 1 2 3 2 2 7 7 5 12 12 8 10 15 21 21 24 33 37 39 42 44 47 48
44 42 39 38 35 32 30 29 36 36 33 38 39 37 36 28 26 25 10 1 3 4 7 16 17 17 22 21 21 20 12 12 20 25 29 36 34 18 11 15 11 10 16 14 8 6 9 10 15 13 9 12 13 11 14 14 9 9 9 12 10 6 4 4 5 3 0 5 3 2 6 7 4 10 11 7 7 10 13 14 19 29 33 35 41 44 47 47
43 42 40 38 36 34 35 35 37 37 35 38 38 35 35 30 26 24 11 2 5 7 8 13 14 16 20 23 27 18 4 9 17 22 29 36 37 21 8 10 9 10 14 10 6 5 9 13 12 12 13 13 13 12 14 16 11 6 6 13 13 7 5 4 5 3 1 3 4 2 3 6 11 12 10 10 10 10 12 13 15 24 30 34 40 44 44 45
43 43 40 39 38 37 39 36 35 39 38 35 35 34 30 30 28 19 7 5 4 9 8 11 13 17 20 26 34 20 5 15 13 13 28 35 35 20 7 10 13 13 16 13 10 10 13 16 15 17 16 12 12 11 11 14 10 4 6 12 13 8 5 3 4 2 1 3 5 5 2 6 13 7 6 10 13 14 14 15 16 19 27 33 38 42 42 42
44 42 41 39 37 36 37 34 34 39 35 29 31 31 27 30 25 10 3 5 3 4 5 15 15 15 21 23 28 22 9 11 7 10 25 27 29 19 3 6 10 11 17 16 14 10 11 19 21 17 13 9 7 5 11 15 10 4 6 7 8 8 6 3 3 2 1 2 9 10 5 5 12 4 6 7 11 14 12 12 15 18 26 31 35 39 41 41
44 42 41 39 38 38 37 33 33 34 33 28 27 29 29 27 15 4 8 5 3 1 5 15 15 17 23 15 13 19 11 4 5 12 17 14 23 22 4 6 7 6 10 13 14 7 5 17 19 13 11 9 9 9 14 17 10 8 7 6 6 3 3 2 2 3 1 4 15 18 11 8 12 5 6 6 5 7 7 7 10 15 23 29 33 38 41 42
44 42 41 41 41 41 39 36 32 30 32 29 26 30 28 15 5 5 8 1 3 3 5 8 11 16 22 14 9 15 10 3 7 12 8 5 13 14 3 3 5 4 7 8 11 6 3 9 9 9 15 13 10 7 9 12 13 10 6 5 4 1 2 2 1 3 5 9 15 17 11 9 13 7 4 2 2 3 6 8 9 10 19 29 34 37 39 40
44 42 41 42 42 40 39 38 34 29 31 31 29 31 20 5 4 6 3 3 1 5 6 8 10 12 17 17 12 13 10 4 6 8 6 6 7 8 7 6 3 3 6 7 9 9 6 6 6 10 17 19 13 4 3 6 10 8 6 8 7 3 3 4 5 5 8 11 7 3 6 9 15 13 5 6 5 3 5 7 11 14 19 28 32 34 36 36
44 42 41 41 40 39 37 35 33 29 30 33 32 25 11 4 7 8 5 2 1 3 5 9 11 10 16 17 11 12 12 6 6 6 4 6 6 8 11 9 3 1 3 8 10 8 6 6 8 9 11 19 18 9 7 8 10 11 10 10 9 6 6 8 8 5 7 11 4 6 3 5 10 12 10 13 14 13 14 13 15 18 20 24 27 28 30 31
43 41 40 39 36 36 34 32 34 31 31 37 29 15 8 7 5 9 9 4 2 1 4 7 10 11 14 12 8 12 10 6 9 8 4 6 6 7 9 9 6 2 2 6 7 9 10 8 10 11 10 18 19 14 12 10 10 12 9 8 9 7 7 8 7 7 7 8 3 4 2 4 6 5 3 6 7 11 20 21 18 18 20 23 25 26 27 27
41 39 38 36 33 33 33 33 34 34 36 36 18 5 8 8 4 6 8 4 2 1 4 7 9 10 10 7 6 11 6 2 10 8 4 7 6 8 8 8 10 5 1 4 3 7 12 8 10 16 15 20 19 14 13 10 6 7 5 7 10 9 8 4 3 6 5 3 3 4 4 4 7 8 3 3 3 3 9 14 13 15 20 25 28 30 31 31
39 38 37 35 34 33 33 34 32 34 38 28 9 4 7 6 4 4 5 5 4 5 8 7 6 6 7 4 4 9 2 2 9 8 4 6 6 8 7 4 10 10 5 3 1 3 8 5 10 15 13 19 23 17 17 15 8 6 7 9 9 7 6 2 2 2 3 3 5 5 7 6 8 15 13 13 12 6 4 7 10 17 24 28 30 33 35 35
39 38 36 34 34 32 34 35 31 35 36 19 5 7 5 5 5 4 3 6 8 10 10 7 6 6 7 4 5 11 6 2 8 8 4 5 5 8 7 4 9 13 10 5 2 1 3 2 7 14 13 19 26 21 16 15 11 7 10 11 3 2 2 2 3 1 2 5 5 7 12 10 7 11 6 6 14 14 10 8 11 17 23 24 28 34 37 36
39 36 33 33 33 32 34 34 32 36 29 10 6 9 4 4 5 4 4 7 9 10 7 5 6 7 8 6 6 11 10 6 8 8 6 5 5 9 11 6 7 14 15 10 1 2 0 1 2 11 13 13 17 16 10 12 10 5 7 11 7 3 5 5 4 4 4 6 6 9 14 11 10 12 6 2 8 11 11 10 8 10 15 19 26 34 37 37
36 28 24 29 32 31 33 33 35 35 17 3 8 9 3 3 5 6 10 10 7 7 7 4 3 5 7 8 7 9 11 9 8 7 6 5 4 8 13 8 5 12 17 14 6 2 0 1 1 5 8 9 9 9 8 10 7 2 2 8 7 5 7 8 8 7 7 8 8 10 12 8 9 14 12 6 6 8 9 9 7 10 17 24 30 35 37 37
33 18 11 25 32 29 33 35 33 25 8 2 7 5 2 3 3 8 18 15 5 3 5 3 3 7 8 7 8 8 7 8 8 7 6 7 5 4 7 10 7 10 15 13 7 2 1 1 1 2 2 8 8 8 11 14 12 6 6 9 9 5 2 4 7 6 6 7 8 9 11 9 6 8 9 9 10 10 11 11 11 15 24 32 36 38 39 37
29 10 5 24 30 28 35 31 18 9 3 3 3 1 4 3 0 7 17 16 6 0 2 3 5 7 7 7 8 8 6 5 7 6 4 7 7 3 6 12 12 12 11 8 7 5 1 2 2 0 1 5 5 4 4 7 9 9 9 10 12 11 6 6 9 8 6 7 6 7 12 11 5 4 7 10 10 10 13 14 12 18 29 35 37 39 40 39
23 5 7 26 29 32 35 18 4 4 3 4 5 4 4 4 2 6 9 8 5 2 2 3 3 4 4 5 6 8 7 5 7 8 5 8 8 4 8 15 19 18 11 5 5 4 2 3 2 2 2 4 3 3 4 2 1 2 5 6 9 10 9 9 10 8 8 8 6 6 12 11 4 3 5 6 6 9 14 14 11 17 28 32 34 35 37 39
17 6 12 27 30 35 29 6 2 5 2 2 6 5 3 2 4 6 5 3 2 2 2 2 3 3 3 3 5 9 9 5 7 8 6 6 5 3 12 19 20 17 9 4 4 3 2 2 2 2 1 3 4 4 5 3 2 2 4 4 7 9 10 10 7 4 6 9 8 6 11 11 6 3 3 3 3 4 9 13 13 16 23 29 32 33 33 36
17 11 12 25 34 35 20 3 4 7 2 3 5 3 2 1 2 7 7 4 2 2 3 3 3 3 3 4 6 10 10 5 6 7 4 4 3 4 18 26 21 13 7 5 6 8 6 3 3 3 1 2 2 1 1 1 2 1 2 4 6 8 10 10 5 2 4 9 12 10 10 10 7 2 3 5 4 3 3 8 13 16 22 27 30 30 31 33
16 9 8 20 32 29 13 1 4 5 4 6 5 5 5 1 1 4 5 3 2 2 4 2 2 4 4 5 5 7 8 3 3 6 3 2 1 1 15 27 23 12 7 7 10 13 8 3 5 6 5 5 5 3 2 2 2 2 2 4 5 7 9 9 6 7 8 9 11 10 9 9 9 3 2 6 5 5 5 6 10 16 21 25 27 28 30 31
10 4 4 10 16 14 4 1 5 5 4 6 5 5 6 3 1 2 3 3 2 2 4 2 2 6 5 6 7 7 7 1 1 6 5 3 2 1 10 23 20 10 7 10 14 11 2 1 6 7 8 9 6 2 3 3 3 2 3 5 4 4 6 6 5 6 7 7 10 11 9 10 15 16 10 3 4 3 6 6 9 14 19 22 26 27 27 27
7 3 4 4 4 4 0 1 5 5 6 8 5 4 7 5 2 1 1 2 3 4 4 3 2 5 6 10 8 6 8 3 2 6 6 3 2 1 6 14 13 8 8 12 15 9 2 2 6 7 11 13 10 5 5 4 5 5 6 7 7 6 6 7 8 5 4 5 10 9 7 10 17 21 15 4 5 5 5 7 11 15 17 19 22 24 25 26
5 5 6 7 4 1 1 4 7 6 7 8 4 5 9 7 5 5 2 0 2 3 2 2 4 6 10 13 8 6 8 3 1 4 4 3 3 2 4 6 7 7 7 8 10 6 2 4 6 7 12 14 9 5 7 7 7 7 10 12 12 11 11 12 13 9 4 5 4 4 7 9 12 16 11 4 6 7 9 13 19 22 23 22 22 22 25 26
7 7 7 9 5 1 3 7 9 8 7 6 3 5 10 10 7 4 1 2 2 3 1 4 7 7 10 11 7 8 10 6 4 5 4 5 5 3 4 3 5 7 5 4 5 3 1 3 5 7 11 12 6 5 6 7 6 5 9 11 11 12 13 14 14 11 10 9 4 3 10 11 9 13 11 4 6 10 12 16 21 25 26 27 28 28 29 29
9 8 8 8 4 4 7 8 8 8 5 4 3 4 8 10 8 3 1 2 5 4 3 7 10 9 9 9 9 9 12 11 8 8 8 8 6 4 4 3 3 5 6 4 3 2 2 3 5 6 7 9 8 7 6 8 8 7 8 7 8 9 9 11 10 7 7 7 5 5 6 10 9 11 14 12 11 11 10 10 14 21 25 27 30 31 33 34
12 13 16 13 5 3 7 5 4 7 4 3 4 4 8 11 9 4 1 1 3 4 5 9 11 7 4 7 8 9 11 9 6 11 16 13 10 9 5 3 5 6 5 4 3 1 2 2 2 4 4 5 7 10 9 9 9 10 9 9 10 8 7 7 7 6 7 7 5 5 4 7 7 9 17 20 14 8 8 9 12 19 22 22 26 30 33 35
16 16 20 17 6 2 5 4 3 6 4 2 2 3 5 7 6 4 3 0 2 2 3 10 13 7 4 6 7 9 10 7 6 14 18 12 12 12 7 8 13 11 6 5 3 2 4 2 1 3 4 2 4 9 9 7 6 8 8 12 14 10 5 4 4 7 9 7 6 5 6 6 6 7 13 19 15 9 10 13 14 17 18 18 23 28 31 33
Wind_Direction
244 242 240 236 236 238 240 241 239 237 234 231 227 225 225 224 224 223 222 221 218 217 219 221 221 224 226 229 234 235 235 239 240 239 237 230 224 227 231 235 233 228 226 221 218 217 217 220 221 223 227 221 218 213 195 186 171 157 112 131 209 184 190 191 182 190 169 86 215 194 188 177 179 191 190 193 199 206 202 203 208 213 214 215 217 220 220 204
242 242 241 239 237 237 238 240 239 237 235 232 228 225 223 223 223 222 222 221 218 215 216 219 219 221 222 224 230 233 235 242 245 245 239 231 226 225 225 229 231 228 223 218 214 212 212 216 219 222 222 218 220 210 202 194 179 165 109 161 224 192 201 204 185 185 168 54 187 190 194 194 197 177 177 186 195 191 195 210 218 223 220 218 219 221 226 216
240 240 240 239 238 237 237 238 239 237 234 233 230 226 223 221 222 221 221 221 219 215 213 216 217 218 218 220 224 226 235 245 251 248 238 229 229 226 223 224 225 225 221 216 213 209 209 208 211 218 217 213 214 204 204 198 192 192 144 197 240 208 226 232 200 190 196 282 203 184 197 201 208 181 179 188 177 182 205 211 215 224 223 218 216 218 226 221
237 238 238 238 237 238 237 237 238 236 233 233 231 228 224 221 220 221 220 219 218 214 211 212 213 216 215 214 216 218 230 248 256 253 241 230 229 226 222 221 220 222 219 215 214 212 209 203 203 213 213 211 208 205 210 201 196 190 167 202 234 189 208 237 219 226 241 274 282 177 183 204 210 189 186 175 145 219 229 218 218 227 226 218 214 215 223 223
236 237 237 236 236 237 237 237 237 235 233 232 231 229 226 222 219 220 219 217 217 215 211 208 209 213 213 209 210 212 212 245 270 258 249 237 229 225 222 219 216 217 215 212 212 213 210 203 203 208 209 209 191 190 225 209 190 180 201 218 205 163 176 237 227 246 260 260 225 166 163 206 201 192 198 184 169 228 231 226 229 237 237 228 222 219 221 223
234 234 235 236 235 235 236 236 236 234 232 231 230 230 228 224 220 219 219 216 215 215 212 208 206 210 212 208 209 207 199 201 6 271 253 243 229 223 221 217 212 211 211 208 208 212 213 203 201 198 186 190 186 185 218 207 194 217 247 233 206 191 202 237 212 225 242 224 210 185 200 210 185 203 213 202 211 229 233 233 234 243 242 236 232 225 225 226
232 232 232 234 233 234 234 234 235 234 231 230 229 229 228 225 220 218 219 216 214 215 212 209 206 209 212 208 210 210 206 213 215 32 322 251 222 219 218 216 210 206 205 205 204 207 214 206 203 197 175 174 194 204 221 202 196 221 263 241 221 220 226 237 214 204 236 238 255 271 266 227 196 220 223 215 228 235 234 230 232 250 244 234 231 231 235 236
230 230 230 231 231 232 232 232 232 233 231 229 228 228 228 225 221 218 218 216 214 213 212 210 207 209 212 207 207 210 213 219 219 270 330 290 207 206 209 213 208 205 203 203 204 203 209 203 202 203 183 189 193 198 209 200 209 218 235 239 217 230 235 242 249 256 271 270 277 271 256 253 234 241 248 234 239 241 236 236 245 260 251 233 230 234 239 238
227 228 228 228 229 229 231 230 230 231 230 228 227 227 227 225 221 218 217 216 213 212 211 209 209 210 210 209 209 213 222 225 222 231 276 294 203 194 198 207 206 204 204 203 203 203 205 198 198 202 199 206 202 195 185 190 231 214 222 228 210 235 239 248 253 258 270 270 269 261 254 261 253 258 266 252 248 246 241 240 244 250 250 239 234 236 239 240
224 226 227 227 228 228 229 228 227 230 229 227 227 225 225 224 222 218 216 216 213 211 211 209 210 211 210 211 211 221 229 228 225 221 232 278 212 193 195 204 205 203 203 203 202 204 205 202 202 203 212 216 200 206 181 184 228 222 225 227 228 242 243 248 254 259 270 272 255 237 250 260 248 235 261 257 246 243 241 240 240 241 243 242 239 238 239 241
223 223 226 226 226 227 227 227 226 228 229 227 226 225 224 223 221 219 216 215 213 211 211 209 211 212 214 217 214 217 224 226 226 219 220 240 222 204 200 201 204 205 202 201 202 205 204 204 202 198 208 216 184 207 208 206 233 241 234 235 244 250 253 247 249 258 256 280 255 229 253 263 226 225 238 220 229 243 242 238 237 237 239 240 240 240 239 242
221 221 224 225 225 225 225 226 224 226 228 227 226 224 223 223 222 219 215 214 213 211 211 209 211 214 218 230 229 223 220 227 228 218 219 225 226 223 211 202 203 207 205 203 202 204 204 201 200 198 195 176 155 140 240 221 229 244 231 251 274 268 267 241 239 248 221 247 259 222 283 261 195 235 237 220 226 239 243 240 238 237 239 238 239 241 243 248
219 220 221 223 224 223 222 223 222 225 226 226 225 223 222 223 223 219 214 214 213 211 210 208 211 214 218 234 241 235 228 226 225 218 219 222 219 219 213 206 207 210 210 208 205 203 204 201 201 203 192 169 164 162 246 215 216 236 215 220 276 281 281 229 221 219 195 227 223 160 269 248 215 238 236 228 229 229 235 240 240 239 239 239 241 245 248 252
218 218 218 220 221 220 220 221 221 223 224 225 224 221 221 221 221 219 214 214 212 210 210 208 208 212 221 231 235 238 233 225 219 215 217 218 218 214 205 206 208 212 212 210 208 204 202 201 201 202 194 178 168 173 224 36 186 211 193 184 228 239 274 236 202 172 180 236 196 165 248 250 244 250 240 235 232 225 230 235 238 239 238 240 243 247 252 255
216 217 217 217 218 218 219 219 220 221 222 224 222 219 218 219 220 218 216 213 210 210 209 209 209 205 224 238 232 230 230 225 215 208 213 216 217 215 204 200 203 207 209 206 205 202 200 198 195 189 183 177 157 148 102 1 337 161 207 216 179 216 270 298 206 172 183 227 182 172 242 258 257 262 254 244 235 225 228 234 236 239 241 243 246 250 255 258
215 215 215 215 215 216 217 217 218 218 220 222 221 218 216 217 218 216 217 212 207 211 208 208 210 202 211 241 229 226 227 225 213 202 210 219 218 216 209 196 196 201 204 201 200 200 198 195 190 178 157 164 162 129 93 262 253 218 214 216 165 197 234 295 257 194 198 198 182 197 231 256 256 263 256 243 233 224 226 236 239 242 246 247 249 251 255 259
213 212 212 212 213 214 214 215 215 215 217 219 217 214 214 215 215 216 219 214 207 208 209 207 203 202 220 232 218 218 218 222 217 204 207 219 222 219 212 193 187 196 197 195 197 198 197 192 187 188 166 155 148 131 161 222 226 209 208 223 203 165 187 223 288 223 210 206 213 215 228 243 239 256 255 232 227 225 226 238 243 244 248 250 252 255 257 261
212 209 211 211 210 212 212 213 212 212 214 215 214 210 210 211 210 213 217 218 208 201 210 204 185 190 231 227 214 208 212 217 218 210 208 214 218 219 214 202 187 186 182 180 189 190 189 185 178 180 173 184 171 172 202 219 211 205 203 214 214 153 195 205 229 217 201 217 234 216 231 249 246 251 256 235 223 226 231 240 246 250 252 254 256 257 259 261
210 207 209 208 207 208 209 211 209 210 211 209 209 204 205 207 209 214 215 217 206 191 207 190 179 181 242 221 209 198 205 208 209 207 206 209 209 207 209 205 188 176 164 156 184 183 172 161 167 185 200 202 198 198 210 192 140 203 197 186 201 214 225 214 233 219 184 205 239 225 232 248 249 245 244 240 231 231 239 245 252 256 257 259 260 261 263 264
208 205 206 206 205 205 206 208 206 207 207 204 201 195 196 196 200 218 212 215 208 199 211 189 190 197 22 207 200 191 191 195 199 200 202 206 199 191 189 183 174 170 166 162 178 176 172 173 194 204 207 203 201 205 213 205 117 164 174 188 207 218 234 215 235 242 184 200 236 225 232 248 251 246 239 240 238 240 247 252 257 259 260 262 263 265 266 268
205 204 204 204 202 202 205 205 203 205 203 203 199 192 193 189 180 206 202 211 214 208 218 201 199 208 237 155 189 185 176 186 199 201 204 203 192 183 173 166 164 172 182 164 137 156 178 201 218 213 209 200 202 206 211 217 215 87 160 203 213 218 232 215 222 231 180 200 248 229 235 251 252 249 242 239 233 237 241 244 252 255 258 260 261 263 265 267
202 202 202 202 200 201 202 201 203 203 202 203 201 200 204 196 192 210 197 202 221 215 222 216 203 211 221 211 181 178 173 180 196 202 203 195 186 183 169 167 175 179 179 154 128 152 183 220 221 211 202 199 207 205 205 218 221 241 227 218 226 211 222 231 221 199 170 201 248 240 239 250 255 250 239 237 229 235 239 238 243 249 253 256 257 260 262 265
201 200 200 200 199 199 199 200 202 202 201 204 204 206 210 202 199 203 187 184 224 218 224 225 209 207 213 216 187 181 180 176 183 196 198 188 183 185 174 173 187 177 172 165 165 175 194 226 218 188 183 203 207 193 191 209 221 229 223 218 236 170 166 232 221 185 189 206 231 256 260 256 262 262 244 234 232 239 244 242 244 247 250 254 256 259 261 263
199 198 197 197 196 197 197 197 199 202 205 207 208 208 210 206 201 187 165 177 291 215 220 225 216 206 204 206 197 192 195 192 186 193 195 187 181 183 179 179 186 181 179 181 180 190 214 217 169 167 193 199 193 174 179 195 215 223 219 218 219 153 184 221 181 187 218 264 259 286 283 268 249 256 255 234 228 237 243 241 243 246 248 253 256 257 258 259
197 196 195 194 194 194 192 192 198 203 205 209 212 209 208 208 203 197 177 125 321 207 210 218 220 215 203 197 197 195 198 205 204 200 195 189 182 177 182 184 185 186 183 184 181 202 224 174 147 184 196 170 180 186 188 195 210 224 219 214 202 159 184 180 137 97 18 286 256 133 270 272 230 241 250 235 217 229 241 237 238 244 247 250 253 254 256 256
195 194 192 192 193 189 185 193 201 201 203 210 213 208 207 205 201 202 195 35 253 185 174 198 207 212 203 193 184 180 191 212 209 203 196 195 191 180 178 180 187 195 178 179 188 205 219 169 159 188 171 162 191 202 195 191 204 231 208 193 199 177 151 138 124 104 21 274 281 163 245 275 268 249 247 237 226 223 236 237 234 241 244 246 250 253 254 256
193 192 190 191 191 185 185 195 200 197 201 210 210 207 206 202 200 199 193 288 233 160 152 180 187 195 196 185 175 170 174 183 191 198 193 195 197 197 205 178 177 193 171 165 203 195 182 178 174 176 170 179 197 204 198 187 200 236 155 164 194 192 141 117 100 108 246 292 293 222 223 277 271 260 245 234 242 232 230 240 236 236 239 242 248 252 254 256
192 190 189 189 189 191 193 196 197 196 202 209 205 202 201 199 199 190 186 262 196 140 149 172 180 187 180 173 176 179 154 158 173 196 190 194 197 199 235 201 185 184 170 169 199 193 176 182 182 177 183 195 199 201 180 174 200 229 146 161 184 188 162 117 93 108 7 353 276 245 122 276 268 253 213 220 238 238 229 235 239 236 237 239 245 251 255 259
189 187 188 188 188 195 199 201 200 198 201 206 201 197 194 192 191 176 214 249 146 107 150 160 171 173 159 163 180 188 174 162 172 180 183 193 196 192 251 244 213 189 178 186 202 196 182 193 190 179 190 197 180 157 151 175 202 179 140 138 152 175 178 154 131 146 14 338 255 243 159 243 270 234 166 203 232 239 229 231 240 239 240 241 244 251 256 258
188 186 186 186 187 193 199 203 205 201 199 199 195 192 188 182 174 176 232 231 95 97 153 153 162 157 152 156 185 191 186 159 130 150 166 183 193 197 247 306 262 205 182 201 209 203 174 191 188 181 195 178 146 154 170 180 172 120 106 92 101 136 140 112 114 138 260 255 249 242 193 207 269 247 174 198 216 215 203 220 241 241 243 244 245 249 254 256
187 186 186 186 189 193 194 197 203 202 197 195 187 181 178 169 159 212 220 248 46 184 154 147 161 154 157 161 177 186 185 150 138 149 155 155 182 192 202 286 259 210 182 198 210 215 157 169 168 184 188 156 131 163 176 166 154 135 117 117 116 48 89 93 98 149 211 238 249 247 208 203 252 246 172 218 252 186 193 211 227 234 240 245 246 248 253 256
185 185 187 189 192 194 194 196 199 196 193 191 178 169 166 165 207 223 212 67 20 209 167 154 163 159 165 169 173 177 173 168 156 156 161 161 174 178 183 200 208 207 201 185 192 203 197 180 159 171 172 156 147 140 106 147 162 159 141 148 165 187 177 190 201 187 214 236 250 230 180 210 246 255 254 259 258 227 212 213 222 231 239 248 252 254 256 258
184 184 187 190 194 196 197 198 195 190 186 182 171 159 164 224 206 210 214 135 221 221 155 159 164 158 164 169 174 171 169 177 160 153 160 168 188 192 196 201 140 60 220 183 185 191 200 210 175 157 158 166 168 160 163 174 178 177 165 171 185 184 195 208 212 204 221 242 255 79 126 232 264 273 254 240 240 230 227 228 230 236 244 255 261 262 261 261
182 184 187 190 195 197 197 198 195 193 183 171 162 156 186 222 196 197 210 210 278 212 121 154 158 152 166 172 171 166 170 184 164 156 149 159 191 195 198 205 170 65 330 195 191 179 193 214 182 170 165 171 179 184 179 165 174 187 172 175 188 183 204 209 206 211 222 245 235 110 166 211 229 256 171 198 251 240 229 229 229 234 242 254 263 265 265 266
179 183 186 189 194 196 198 199 194 192 179 162 154 172 197 203 196 194 202 194 249 207 112 144 150 151 173 173 166 172 176 182 161 156 153 164 193 192 186 199 178 154 242 218 215 184 203 223 177 177 172 167 181 190 168 143 165 193 156 177 203 201 204 206 199 202 198 241 218 185 227 222 236 270 243 202 321 332 228 227 229 236 239 247 258 262 265 267
176 181 185 189 192 193 196 198 195 188 176 159 153 213 195 207 206 180 177 157 173 155 122 135 148 153 171 151 168 184 179 53 156 166 187 182 205 194 172 181 174 169 181 197 297 198 208 224 171 173 171 175 185 181 166 163 167 177 178 194 211 200 183 186 254 187 121 222 226 203 244 268 280 280 266 242 247 245 213 215 219 226 231 239 250 256 260 261
174 179 184 189 192 191 193 195 193 185 175 161 184 206 194 227 198 161 165 145 147 149 138 152 170 166 169 153 176 181 163 112 166 178 188 177 203 190 167 170 170 174 184 186 312 308 194 232 175 170 178 190 186 175 176 184 165 159 194 190 153 84 132 149 246 254 117 230 232 204 229 238 245 266 274 224 228 224 210 205 208 218 227 234 243 250 255 257
174 177 181 189 192 190 191 193 188 179 171 161 209 202 198 223 191 164 171 146 143 155 158 171 170 169 174 167 175 175 167 172 175 179 182 176 204 184 169 174 170 177 185 179 200 319 181 351 199 186 188 183 174 168 184 202 187 173 189 174 145 157 189 182 210 222 207 233 245 226 232 231 224 245 266 182 216 217 207 205 205 216 225 231 237 243 251 256
169 169 177 190 192 189 191 189 180 174 169 174 207 202 194 208 209 190 169 149 143 164 172 179 160 166 178 173 167 165 172 183 173 172 185 184 211 193 174 169 166 177 177 169 176 279 325 129 280 222 191 153 157 177 183 195 212 314 138 171 176 192 199 196 200 212 213 225 244 245 242 231 224 242 249 232 211 203 196 199 205 214 218 223 227 233 244 255
162 156 169 189 190 190 186 180 174 174 176 210 201 199 167 186 246 200 174 160 150 189 184 179 153 165 171 165 162 161 171 182 171 177 195 182 196 228 183 166 155 164 165 161 167 162 28 207 232 319 185 161 172 190 187 190 196 197 178 179 187 194 214 214 206 212 221 223 234 248 252 242 227 237 234 219 211 196 186 193 204 212 216 221 223 225 234 246
157 142 152 182 189 187 177 173 174 176 177 202 196 147 171 184 252 193 180 166 151 266 179 146 147 164 162 151 160 166 161 167 173 180 197 191 198 240 197 173 156 148 149 150 166 168 150 196 189 260 193 188 183 148 175 201 190 191 199 189 189 191 183 201 211 210 219 223 210 232 254 254 234 217 205 203 207 198 193 198 201 210 217 223 226 226 231 240
153 130 156 176 186 182 173 169 165 163 180 194 162 127 164 177 147 183 190 169 149 139 113 105 118 141 149 149 156 163 160 164 177 180 196 207 210 221 189 171 159 154 153 150 166 166 117 114 177 226 209 234 256 76 69 17 50 227 236 208 203 202 187 200 212 198 202 218 210 230 254 258 252 222 211 213 219 208 205 205 204 214 221 227 233 234 236 241
145 114 154 171 179 178 174 170 81 163 207 163 132 109 115 144 150 170 192 197 174 156 118 113 143 149 157 153 149 165 172 173 179 184 195 205 226 217 169 161 158 159 158 144 144 136 97 115 184 240 273 285 303 37 54 32 27 312 268 229 218 213 206 216 220 192 204 213 210 232 250 257 261 223 217 267 269 218 212 210 211 221 227 231 238 243 245 248
126 111 142 168 175 177 178 196 174 175 180 127 120 98 97 87 170 170 180 200 207 170 148 148 166 160 159 150 151 170 175 172 186 191 182 186 225 188 163 161 162 167 178 184 173 173 177 159 171 198 269 292 277 334 2 43 112 195 247 247 242 227 221 229 231 236 238 211 206 220 236 253 259 172 70 358 349 350 276 222 218 226 233 236 240 245 249 252
119 110 132 164 174 179 183 203 167 159 146 142 137 144 141 88 252 189 174 174 189 159 143 157 160 115 119 134 132 164 171 148 182 182 159 168 218 169 166 169 170 175 195 192 167 167 177 169 168 187 213 221 219 229 234 178 140 169 230 248 259 245 230 233 228 226 230 212 210 225 234 255 268 256 20 5 7 348 315 265 236 236 239 244 247 248 252 257
129 113 126 155 175 187 202 165 148 133 143 150 138 153 153 137 199 197 145 160 208 127 99 80 123 99 105 136 130 161 178 91 52 171 163 176 200 275 183 177 178 181 176 164 156 153 156 227 188 197 216 223 221 143 105 107 118 149 191 199 219 255 263 270 251 231 237 227 223 228 228 248 265 262 256 297 13 330 295 288 271 257 252 253 254 255 259 263
143 150 143 140 168 187 71 140 160 149 161 165 153 159 161 155 163 147 125 201 214 158 91 41 147 139 152 155 141 167 174 111 64 163 158 167 184 294 181 180 187 185 158 157 159 143 72 227 207 214 228 237 239 199 153 156 184 200 212 217 222 230 246 259 255 262 318 273 237 235 236 237 250 258 258 280 7 335 303 302 300 296 289 279 273 270 268 268
139 146 155 154 151 183 196 180 176 163 161 166 158 156 163 168 170 166 161 21 199 185 96 85 191 188 171 161 148 158 163 126 86 160 150 160 157 116 146 178 202 186 151 155 167 146 103 210 205 209 230 246 247 198 175 184 203 215 221 229 231 220 211 225 240 245 248 245 246 304 300 266 255 273 289 2 18 336 320 319 319 322 322 319 313 300 285 276
116 117 136 154 147 49 103 146 158 154 153 160 158 167 170 172 174 176 118 101 174 232 160 159 194 191 173 168 149 149 167 166 170 188 181 164 160 139 137 165 206 188 155 143 174 165 149 208 194 191 228 246 226 170 176 182 188 208 212 217 219 213 208 214 226 225 216 222 221 274 291 289 279 283 293 326 334 315 318 327 326 324 322 321 319 314 306 298
143 142 136 129 102 82 109 124 149 153 152 164 171 182 176 173 175 174 32 137 175 203 189 177 182 173 168 169 157 167 186 182 175 183 172 156 160 172 167 168 171 166 155 145 175 214 207 204 182 171 221 243 214 187 184 178 189 213 211 200 194 196 202 209 217 209 203 223 209 189 261 283 278 282 293 298 299 302 315 332 323 311 309 307 305 305 308 309
156 156 151 133 88 105 134 120 149 158 163 193 181 176 177 177 172 148 79 201 176 193 203 175 159 148 148 159 168 186 187 179 181 177 169 169 173 169 175 183 153 147 156 155 149 178 200 201 148 159 214 236 202 194 192 186 206 224 215 197 193 193 193 199 200 187 189 199 181 170 236 263 269 299 304 299 295 296 294 285 282 289 295 297 297 298 299 302
146 144 153 145 107 116 149 129 158 164 164 190 171 160 172 169 152 131 143 267 4 358 199 166 151 141 142 161 187 194 172 170 201 177 166 168 164 154 150 159 157 156 162 158 140 149 171 171 141 179 214 238 180 181 183 183 207 225 217 203 200 197 187 183 192 197 196 182 168 199 234 242 259 279 286 290 296 299 287 276 270 276 282 291 298 299 297 294
Height
1464 1466 1467 1469 1470 1471 1472 1473 1474 1476 1477 1479 1481 1482 1484 1486 1487 1489 1490 1492 1494 1496 1498 1500 1502 1504 1505 1506 1507 1508 1509 1509 1509 1508 1506 1508 1514 1516 1516 1519 1523 1525 1526 1527 1529 1530 1531 1532 1533 1534 1535 1536 1536 1536 1537 1538 1538 1538 1541 1546 1547 1549 1547 1542 1543 1542 1540 1540 1540 1540 1540 1541 1542 1543 1544 1545 1546 1546 1546 1546 1546 1546 1546 1547 1547 1547 1548 1548
1462 1463 1465 1466 1468 1469 1470 1471 1472 1473 1475 1476 1478 1480 1482 1483 1485 1487 1488 1490 1492 1493 1496 1498 1500 1502 1503 1505 1506 1507 1508 1507 1507 1504 1503 1509 1513 1512 1514 1518 1521 1524 1526 1527 1527 1529 1530 1531 1532 1533 1534 1535 1536 1536 1537 1537 1538 1538 1543 1546 1544 1544 1541 1537 1538 1538 1538 1539 1539 1540 1540 1541 1541 1541 1543 1544 1545 1545 1546 1545 1545 1546 1546 1546 1547 1547 1547 1547
1459 1460 1462 1464 1465 1467 1468 1469 1470 1471 1473 1474 1476 1478 1480 1481 1483 1485 1486 1488 1490 1492 1494 1496 1499 1500 1502 1504 1505 1507 1507 1507 1504 1499 1501 1508 1509 1509 1513 1516 1519 1522 1524 1526 1527 1528 1529 1530 1532 1533 1534 1535 1535 1536 1536 1537 1537 1538 1541 1543 1541 1539 1538 1536 1536 1536 1537 1538 1538 1539 1540 1540 1541 1541 1542 1543 1544 1545 1544 1544 1544 1544 1544 1545 1546 1546 1546 1546
1455 1457 1459 1461 1463 1464 1465 1467 1468 1469 1471 1472 1474 1476 1477 1479 1481 1483 1484 1486 1488 1490 1492 1494 1497 1499 1501 1502 1504 1505 1506 1507 1499 1494 1500 1505 1506 1508 1511 1513 1517 1520 1523 1525 1526 1527 1528 1530 1531 1532 1533 1534 1535 1536 1536 1536 1537 1537 1539 1539 1537 1537 1537 1536 1536 1536 1537 1537 1538 1539 1540 1540 1540 1541 1541 1541 1544 1545 1542 1540 1541 1541 1542 1543 1545 1545 1545 1545
1452 1454 1456 1458 1460 1462 1463 1464 1465 1467 1469 1470 1472 1473 1475 1477 1479 1481 1482 1484 1486 1488 1490 1492 1494 1497 1499 1500 1502 1503 1507 1508 1496 1492 1498 1500 1503 1506 1508 1512 1515 1518 1521 1523 1525 1526 1527 1529 1530 1531 1533 1533 1534 1536 1535 1535 1536 1537 1536 1536 1536 1536 1537 1536 1536 1536 1536 1537 1538 1538 1539 1539 1539 1540 1539 1539 1541 1540 1538 1538 1539 1540 1541 1542 1543 1544 1544 1544
1449 1451 1453 1455 1457 1459 1461 1462 1463 1465 1466 1468 1470 1471 1473 1475 1477 1479 1480 1482 1484 1486 1488 1490 1492 1495 1497 1498 1500 1500 1503 1502 1493 1492 1495 1495 1500 1504 1506 1510 1513 1516 1519 1521 1523 1524 1526 1528 1529 1531 1532 1533 1534 1534 1534 1535 1536 1537 1536 1535 1535 1536 1536 1536 1536 1536 1536 1537 1537 1538 1538 1538 1538 1538 1538 1537 1537 1536 1536 1538 1539 1539 1541 1542 1543 1543 1543 1543
1446 1448 1450 1452 1454 1456 1458 1460 1461 1462 1464 1466 1468 1469 1471 1473 1475 1477 1478 1481 1482 1484 1486 1488 1491 1492 1495 1497 1498 1498 1496 1492 1491 1493 1493 1493 1497 1500 1505 1508 1511 1513 1515 1518 1521 1523 1525 1527 1528 1530 1531 1532 1533 1533 1533 1534 1535 1536 1536 1535 1535 1535 1535 1536 1536 1536 1536 1537 1537 1538 1538 1538 1538 1537 1537 1535 1535 1535 1537 1537 1538 1539 1540 1541 1541 1542 1542 1542
1442 1444 1447 1449 1451 1453 1455 1457 1458 1460 1462 1464 1466 1467 1469 1471 1473 1475 1477 1479 1481 1483 1485 1487 1489 1490 1493 1494 1494 1494 1489 1487 1492 1494 1493 1494 1494 1498 1503 1505 1508 1511 1513 1516 1518 1521 1523 1525 1528 1529 1530 1531 1532 1532 1533 1534 1535 1535 1535 1534 1534 1535 1534 1535 1536 1536 1536 1536 1537 1537 1537 1536 1537 1537 1535 1533 1534 1535 1536 1536 1537 1538 1538 1539 1540 1540 1540 1541
1439 1441 1443 1446 1448 1450 1453 1454 1456 1458 1460 1462 1463 1465 1467 1469 1471 1473 1475 1477 1479 1481 1483 1485 1487 1489 1491 1491 1491 1488 1481 1485 1494 1495 1494 1495 1494 1496 1499 1501 1505 1508 1511 1514 1517 1520 1521 1523 1526 1527 1529 1530 1530 1531 1532 1535 1535 1533 1532 1533 1534 1534 1534 1535 1534 1535 1535 1536 1536 1536 1536 1535 1536 1536 1532 1529 1532 1534 1534 1535 1535 1536 1537 1537 1538 1538 1538 1539
1435 1438 1440 1442 1445 1447 1450 1452 1454 1456 1458 1459 1461 1463 1465 1467 1470 1471 1473 1475 1477 1480 1482 1484 1485 1488 1488 1488 1488 1483 1479 1487 1494 1493 1495 1495 1495 1496 1496 1499 1503 1505 1509 1512 1515 1517 1519 1522 1524 1527 1529 1528 1529 1530 1531 1533 1532 1530 1531 1532 1533 1533 1533 1534 1534 1534 1534 1534 1535 1536 1535 1534 1535 1536 1530 1527 1531 1532 1532 1533 1534 1535 1535 1536 1536 1536 1537 1537
1432 1434 1437 1439 1442 1444 1447 1449 1451 1453 1455 1457 1459 1461 1463 1466 1468 1470 1472 1474 1476 1478 1480 1482 1484 1485 1485 1485 1483 1479 1481 1488 1491 1492 1495 1494 1495 1495 1496 1499 1502 1504 1506 1509 1512 1515 1518 1521 1524 1526 1528 1527 1529 1530 1530 1531 1530 1530 1531 1532 1532 1532 1532 1533 1533 1533 1534 1534 1534 1534 1534 1533 1535 1533 1527 1527 1530 1530 1531 1531 1532 1533 1533 1534 1534 1535 1535 1536
1428 1431 1433 1436 1438 1441 1444 1447 1449 1451 1453 1455 1457 1459 1462 1464 1466 1468 1470 1472 1474 1476 1478 1480 1482 1483 1484 1482 1478 1478 1483 1487 1489 1492 1493 1493 1495 1495 1496 1499 1501 1504 1505 1507 1510 1514 1518 1520 1522 1524 1525 1526 1528 1530 1529 1529 1530 1530 1531 1532 1531 1531 1531 1531 1532 1532 1533 1533 1532 1534 1535 1534 1533 1528 1523 1527 1529 1529 1530 1530 1530 1531 1532 1533 1533 1533 1534 1534
1424 1427 1430 1433 1435 1438 1441 1444 1446 1448 1451 1453 1455 1458 1460 1462 1464 1466 1468 1470 1473 1475 1477 1479 1480 1481 1483 1479 1475 1478 1483 1485 1487 1490 1490 1492 1495 1494 1496 1498 1501 1504 1506 1508 1510 1513 1517 1519 1521 1522 1523 1525 1526 1528 1528 1528 1529 1529 1531 1532 1532 1533 1531 1528 1530 1531 1532 1533 1531 1536 1538 1532 1528 1523 1522 1527 1527 1528 1529 1528 1529 1529 1530 1530 1531 1531 1531 1532
1421 1424 1427 1430 1432 1435 1438 1441 1444 1446 1449 1451 1453 1456 1458 1461 1463 1465 1467 1469 1471 1474 1476 1477 1478 1480 1480 1476 1475 1478 1481 1483 1485 1487 1489 1490 1493 1494 1495 1497 1500 1503 1505 1508 1511 1513 1515 1517 1520 1522 1523 1524 1524 1526 1527 1528 1529 1530 1532 1533 1533 1536 1532 1525 1527 1529 1531 1532 1530 1535 1538 1531 1524 1520 1522 1525 1525 1526 1526 1526 1527 1527 1527 1528 1528 1529 1529 1529
1417 1420 1423 1426 1429 1432 1435 1438 1441 1444 1447 1449 1452 1454 1457 1459 1462 1464 1466 1467 1469 1472 1474 1476 1476 1478 1479 1474 1473 1477 1479 1479 1481 1485 1487 1488 1490 1493 1494 1496 1499 1502 1505 1508 1510 1512 1514 1516 1519 1520 1521 1522 1524 1526 1528 1530 1529 1530 1533 1534 1533 1535 1531 1525 1525 1527 1528 1530 1529 1533 1536 1530 1523 1519 1521 1524 1523 1524 1524 1523 1524 1524 1524 1525 1526 1526 1526 1526
1413 1416 1420 1423 1426 1429 1433 1436 1439 1442 1445 1447 1450 1453 1455 1458 1460 1463 1464 1465 1468 1470 1472 1474 1474 1476 1476 1472 1472 1474 1475 1476 1479 1483 1486 1486 1488 1491 1494 1496 1498 1501 1504 1507 1510 1511 1513 1515 1518 1519 1520 1522 1523 1525 1530 1533 1531 1529 1531 1533 1533 1534 1534 1529 1526 1524 1525 1527 1528 1530 1530 1526 1521 1518 1519 1521 1522 1522 1522 1521 1521 1521 1521 1522 1523 1523 1522 1523
1409 1413 1416 1419 1423 1426 1430 1433 1437 1440 1443 1446 1449 1452 1454 1457 1460 1462 1463 1464 1466 1467 1470 1471 1472 1476 1474 1468 1469 1469 1470 1473 1478 1481 1483 1485 1487 1489 1493 1495 1497 1500 1503 1506 1509 1511 1513 1515 1517 1518 1519 1521 1522 1525 1533 1534 1529 1529 1530 1531 1533 1533 1534 1532 1527 1523 1524 1525 1525 1526 1525 1520 1518 1517 1517 1518 1520 1521 1520 1519 1518 1519 1519 1519 1519 1520 1519 1519
1405 1409 1413 1416 1420 1423 1427 1431 1435 1438 1441 1444 1447 1450 1453 1456 1458 1460 1460 1461 1463 1466 1469 1468 1470 1475 1468 1461 1463 1464 1466 1471 1475 1479 1481 1483 1485 1488 1491 1493 1496 1499 1502 1505 1507 1509 1512 1514 1516 1518 1519 1521 1520 1520 1524 1522 1520 1526 1530 1532 1533 1532 1532 1530 1526 1522 1523 1525 1525 1526 1526 1520 1516 1517 1517 1518 1518 1519 1518 1517 1517 1517 1517 1517 1516 1516 1515 1515
1401 1405 1409 1413 1417 1421 1425 1428 1433 1436 1439 1443 1446 1449 1452 1454 1456 1457 1458 1459 1460 1460 1461 1459 1460 1461 1455 1452 1458 1462 1465 1469 1472 1476 1478 1480 1483 1486 1489 1492 1495 1497 1501 1503 1505 1506 1509 1512 1515 1516 1514 1513 1512 1511 1512 1512 1515 1519 1523 1528 1531 1530 1530 1527 1523 1520 1521 1525 1525 1525 1525 1519 1515 1516 1517 1517 1517 1517 1516 1515 1515 1515 1514 1514 1514 1512 1512 1511
1398 1402 1406 1410 1414 1418 1422 1426 1430 1434 1437 1440 1442 1446 1448 1450 1454 1455 1454 1453 1452 1451 1451 1451 1451 1451 1450 1451 1457 1461 1464 1467 1470 1472 1475 1478 1481 1485 1488 1491 1494 1497 1498 1500 1502 1504 1506 1510 1509 1505 1501 1502 1505 1508 1509 1512 1514 1514 1518 1524 1525 1526 1527 1524 1522 1520 1520 1523 1522 1521 1522 1518 1513 1513 1514 1514 1515 1514 1514 1513 1512 1512 1511 1510 1510 1509 1508 1507
1394 1399 1403 1407 1411 1415 1419 1424 1428 1432 1435 1437 1439 1441 1441 1442 1446 1446 1446 1448 1448 1449 1450 1450 1451 1452 1453 1453 1455 1458 1463 1466 1468 1470 1473 1476 1480 1483 1486 1488 1492 1495 1495 1496 1501 1503 1506 1506 1499 1493 1495 1500 1504 1507 1510 1512 1514 1516 1518 1520 1522 1523 1522 1520 1519 1519 1520 1522 1520 1518 1521 1517 1511 1510 1511 1511 1512 1511 1510 1510 1509 1508 1507 1507 1507 1505 1504 1503
1391 1396 1400 1405 1409 1413 1417 1421 1426 1430 1432 1434 1436 1437 1435 1436 1440 1440 1443 1447 1447 1449 1450 1450 1452 1453 1454 1455 1456 1458 1461 1463 1467 1469 1471 1474 1477 1479 1482 1485 1487 1489 1491 1495 1499 1504 1506 1499 1488 1490 1498 1503 1504 1506 1510 1514 1516 1519 1520 1521 1522 1520 1519 1519 1517 1517 1520 1522 1520 1518 1518 1515 1507 1505 1506 1506 1507 1506 1504 1505 1505 1504 1503 1503 1503 1501 1500 1500
1387 1392 1397 1402 1406 1411 1415 1419 1424 1428 1429 1430 1431 1432 1433 1437 1440 1441 1444 1447 1447 1448 1449 1449 1450 1451 1452 1455 1457 1458 1458 1459 1463 1465 1468 1471 1472 1475 1479 1481 1482 1484 1488 1491 1493 1499 1498 1487 1484 1494 1501 1501 1504 1507 1511 1516 1518 1518 1519 1523 1523 1519 1520 1521 1518 1517 1518 1519 1518 1517 1516 1512 1506 1502 1501 1502 1502 1500 1499 1500 1500 1500 1500 1498 1498 1497 1497 1496
1384 1389 1394 1399 1404 1409 1413 1418 1423 1424 1425 1426 1427 1429 1433 1437 1441 1443 1444 1446 1446 1445 1446 1448 1449 1449 1450 1454 1457 1458 1458 1458 1460 1462 1465 1467 1469 1472 1474 1477 1480 1482 1485 1485 1488 1491 1486 1481 1487 1495 1497 1499 1505 1509 1512 1516 1518 1516 1516 1519 1520 1518 1518 1518 1518 1517 1517 1518 1517 1519 1518 1508 1501 1500 1496 1495 1497 1495 1493 1495 1495 1495 1495 1494 1493 1492 1492 1491
1380 1386 1392 1397 1402 1406 1411 1417 1418 1419 1422 1424 1425 1428 1434 1437 1441 1444 1445 1447 1447 1446 1446 1447 1448 1448 1448 1453 1455 1456 1458 1458 1458 1460 1462 1464 1466 1469 1471 1473 1477 1480 1482 1483 1487 1488 1484 1483 1488 1492 1494 1500 1506 1507 1508 1510 1514 1514 1510 1511 1515 1517 1516 1516 1517 1517 1521 1522 1517 1521 1523 1504 1492 1492 1489 1489 1492 1491 1489 1490 1490 1490 1490 1490 1488 1486 1485 1485
1377 1384 1389 1394 1399 1404 1410 1412 1412 1416 1420 1421 1422 1427 1433 1436 1441 1444 1446 1450 1446 1442 1443 1444 1445 1444 1444 1449 1452 1456 1460 1456 1455 1458 1460 1462 1465 1467 1468 1470 1471 1474 1477 1481 1486 1484 1482 1483 1485 1489 1495 1500 1503 1504 1502 1504 1511 1512 1505 1506 1513 1514 1515 1517 1516 1519 1526 1526 1518 1519 1523 1509 1492 1486 1484 1485 1487 1487 1487 1485 1485 1485 1485 1485 1483 1480 1480 1480
1375 1381 1386 1392 1397 1400 1403 1404 1407 1413 1414 1415 1419 1426 1431 1435 1441 1443 1447 1452 1441 1432 1437 1440 1440 1438 1438 1444 1448 1453 1456 1451 1453 1457 1456 1459 1464 1465 1467 1465 1466 1469 1471 1480 1484 1476 1474 1481 1484 1487 1493 1496 1498 1496 1494 1498 1508 1508 1501 1504 1512 1514 1516 1517 1517 1523 1527 1526 1521 1517 1520 1516 1497 1480 1477 1481 1483 1483 1483 1481 1479 1479 1479 1479 1478 1475 1475 1476
1372 1378 1383 1389 1393 1395 1397 1400 1405 1408 1408 1411 1418 1425 1430 1434 1440 1443 1448 1447 1428 1419 1428 1432 1433 1435 1436 1441 1444 1447 1448 1446 1450 1454 1453 1457 1460 1463 1465 1461 1460 1462 1464 1472 1474 1465 1467 1475 1478 1481 1487 1489 1488 1488 1491 1498 1505 1505 1501 1503 1508 1513 1517 1517 1520 1526 1529 1530 1525 1517 1521 1519 1490 1469 1472 1475 1476 1477 1476 1475 1473 1473 1474 1473 1473 1472 1472 1473
1369 1375 1381 1386 1392 1395 1398 1400 1402 1404 1408 1413 1418 1425 1430 1434 1439 1443 1445 1436 1416 1411 1419 1423 1429 1434 1435 1440 1442 1443 1444 1445 1447 1450 1452 1456 1457 1459 1463 1461 1459 1459 1459 1462 1462 1462 1464 1467 1470 1475 1481 1483 1484 1488 1492 1496 1501 1502 1502 1504 1508 1512 1515 1518 1522 1527 1532 1535 1524 1511 1518 1517 1482 1460 1470 1474 1469 1469 1469 1470 1468 1467 1470 1469 1469 1469 1468 1468
1367 1372 1379 1385 1389 1391 1395 1399 1401 1405 1409 1413 1418 1424 1429 1434 1438 1441 1439 1424 1410 1413 1417 1418 1423 1427 1430 1437 1441 1441 1443 1445 1446 1448 1451 1454 1455 1458 1461 1462 1462 1460 1462 1462 1461 1462 1462 1463 1468 1472 1475 1479 1483 1488 1489 1492 1497 1500 1504 1508 1512 1516 1517 1521 1524 1527 1533 1531 1513 1498 1506 1516 1488 1457 1461 1468 1462 1461 1463 1466 1465 1464 1466 1464 1464 1464 1463 1463
1365 1370 1376 1381 1383 1386 1390 1395 1399 1403 1408 1412 1418 1423 1428 1433 1436 1437 1428 1413 1409 1415 1417 1418 1421 1422 1425 1431 1436 1439 1442 1444 1445 1447 1450 1453 1455 1458 1460 1463 1462 1460 1462 1464 1463 1463 1464 1466 1468 1468 1470 1475 1481 1487 1488 1491 1495 1497 1504 1509 1516 1522 1522 1525 1527 1528 1531 1519 1499 1489 1496 1514 1496 1459 1456 1462 1456 1458 1461 1461 1462 1461 1461 1459 1459 1459 1458 1459
1363 1369 1374 1377 1380 1384 1388 1391 1396 1402 1406 1411 1416 1420 1426 1431 1431 1427 1416 1410 1413 1414 1412 1415 1418 1419 1422 1426 1431 1435 1439 1443 1445 1446 1448 1450 1452 1454 1456 1460 1461 1460 1459 1460 1463 1464 1464 1463 1463 1464 1467 1470 1478 1488 1494 1495 1495 1497 1503 1507 1516 1523 1522 1524 1522 1518 1517 1504 1493 1492 1496 1504 1486 1454 1454 1460 1456 1458 1459 1458 1459 1458 1457 1456 1455 1455 1455 1456
1361 1367 1372 1376 1379 1383 1387 1392 1397 1401 1404 1408 1415 1419 1425 1426 1421 1415 1411 1412 1413 1409 1408 1412 1414 1417 1421 1424 1428 1432 1436 1440 1442 1445 1447 1448 1451 1451 1452 1456 1460 1462 1459 1456 1460 1464 1464 1463 1463 1465 1467 1466 1469 1479 1488 1490 1490 1493 1495 1499 1509 1514 1516 1519 1514 1510 1510 1500 1494 1497 1499 1500 1481 1453 1448 1452 1452 1455 1455 1456 1457 1455 1455 1454 1452 1454 1453 1454
1360 1366 1371 1375 1378 1382 1387 1392 1396 1399 1402 1406 1412 1418 1423 1420 1411 1407 1409 1414 1413 1409 1409 1411 1413 1418 1421 1423 1426 1428 1434 1438 1439 1442 1446 1448 1451 1451 1452 1455 1459 1465 1464 1457 1455 1457 1458 1458 1457 1457 1459 1460 1461 1466 1470 1475 1482 1484 1483 1491 1498 1498 1501 1506 1504 1505 1506 1500 1499 1502 1502 1496 1476 1452 1445 1446 1447 1450 1450 1452 1453 1452 1454 1453 1451 1452 1452 1452
1359 1365 1369 1373 1377 1381 1386 1390 1393 1397 1400 1404 1410 1415 1416 1412 1406 1404 1407 1412 1414 1412 1411 1412 1415 1419 1422 1425 1426 1426 1430 1435 1437 1441 1445 1446 1446 1446 1448 1452 1455 1462 1466 1460 1451 1449 1449 1445 1444 1446 1448 1451 1457 1461 1464 1473 1484 1485 1483 1489 1489 1483 1485 1491 1492 1493 1496 1499 1501 1499 1492 1478 1457 1443 1443 1447 1447 1448 1449 1450 1451 1452 1453 1452 1451 1449 1450 1450
1358 1364 1368 1371 1375 1380 1384 1388 1392 1396 1398 1402 1409 1410 1406 1402 1401 1401 1401 1404 1409 1410 1411 1415 1417 1419 1422 1426 1428 1427 1429 1433 1435 1440 1443 1444 1443 1442 1443 1447 1451 1456 1461 1460 1454 1451 1449 1443 1440 1444 1447 1448 1450 1454 1459 1464 1472 1479 1482 1483 1479 1475 1479 1486 1490 1489 1493 1499 1493 1485 1481 1474 1460 1442 1434 1441 1445 1446 1449 1449 1449 1450 1450 1450 1449 1447 1448 1447
1356 1361 1365 1369 1373 1378 1382 1386 1390 1394 1397 1401 1405 1402 1399 1397 1396 1397 1397 1398 1402 1405 1407 1412 1414 1416 1420 1424 1426 1426 1428 1431 1434 1436 1440 1442 1439 1437 1440 1443 1446 1449 1453 1458 1458 1455 1451 1444 1441 1444 1446 1446 1446 1452 1457 1455 1457 1469 1474 1472 1475 1482 1482 1485 1491 1494 1499 1500 1485 1474 1473 1474 1469 1448 1429 1434 1440 1440 1445 1445 1445 1447 1447 1447 1447 1446 1445 1444
1353 1359 1364 1368 1372 1377 1381 1385 1389 1392 1396 1401 1401 1398 1396 1395 1394 1395 1396 1396 1398 1402 1404 1406 1408 1410 1414 1419 1422 1424 1426 1429 1431 1433 1436 1439 1434 1428 1434 1440 1443 1445 1448 1453 1459 1458 1453 1446 1443 1443 1443 1444 1447 1454 1461 1459 1455 1459 1462 1463 1472 1484 1486 1486 1490 1491 1496 1497 1481 1468 1464 1463 1460 1442 1428 1433 1437 1436 1441 1442 1443 1446 1446 1446 1446 1445 1443 1441
1353 1360 1364 1367 1371 1376 1380 1384 1388 1392 1396 1398 1396 1395 1395 1394 1393 1392 1394 1395 1397 1400 1402 1402 1404 1408 1411 1415 1418 1422 1424 1425 1428 1430 1432 1435 1431 1425 1426 1433 1439 1443 1444 1449 1456 1459 1456 1451 1447 1443 1442 1445 1449 1453 1459 1461 1459 1459 1461 1462 1465 1471 1473 1474 1475 1473 1480 1485 1476 1466 1459 1451 1442 1430 1426 1433 1435 1435 1439 1441 1443 1443 1442 1442 1442 1441 1440 1438
1352 1358 1363 1367 1370 1374 1379 1384 1388 1390 1392 1392 1390 1391 1393 1392 1392 1392 1392 1393 1395 1398 1399 1398 1400 1405 1407 1411 1416 1419 1422 1423 1425 1428 1429 1430 1430 1426 1426 1429 1435 1441 1443 1446 1452 1456 1458 1457 1451 1446 1445 1446 1445 1446 1448 1450 1453 1457 1461 1463 1463 1465 1466 1467 1466 1463 1466 1473 1472 1466 1455 1437 1426 1422 1424 1429 1430 1430 1433 1435 1437 1436 1435 1435 1434 1435 1435 1433
1351 1357 1362 1366 1369 1373 1378 1382 1385 1386 1387 1388 1387 1390 1392 1390 1390 1391 1391 1392 1393 1395 1395 1395 1398 1401 1403 1408 1413 1416 1420 1422 1424 1427 1427 1427 1426 1425 1425 1426 1430 1437 1442 1446 1449 1451 1454 1457 1453 1449 1448 1445 1442 1443 1446 1445 1446 1449 1453 1453 1453 1457 1461 1467 1468 1461 1461 1464 1462 1462 1451 1428 1418 1419 1419 1420 1423 1424 1426 1427 1428 1430 1429 1429 1429 1430 1431 1430
1350 1357 1361 1363 1366 1370 1375 1378 1380 1382 1383 1384 1384 1386 1389 1388 1389 1392 1391 1391 1392 1393 1394 1395 1398 1400 1402 1406 1410 1413 1417 1421 1423 1425 1425 1424 1422 1422 1423 1424 1426 1431 1436 1442 1445 1445 1448 1454 1454 1450 1449 1446 1443 1446 1451 1451 1449 1451 1452 1449 1448 1450 1452 1459 1461 1457 1459 1459 1453 1456 1449 1425 1415 1419 1418 1418 1420 1420 1422 1424 1425 1427 1427 1427 1428 1429 1430 1431
1350 1356 1359 1362 1365 1369 1373 1377 1379 1381 1382 1381 1381 1383 1386 1387 1389 1391 1392 1391 1391 1391 1393 1394 1396 1398 1402 1405 1408 1411 1414 1417 1420 1421 1421 1422 1422 1421 1422 1424 1427 1429 1433 1438 1443 1444 1446 1451 1452 1448 1447 1447 1446 1448 1451 1453 1454 1454 1453 1450 1449 1448 1446 1448 1450 1450 1453 1455 1454 1461 1454 1428 1415 1419 1420 1420 1421 1421 1422 1424 1425 1427 1426 1427 1427 1428 1429 1429
1350 1356 1359 1362 1365 1368 1370 1372 1374 1378 1381 1381 1382 1385 1386 1387 1388 1389 1390 1390 1390 1390 1390 1392 1393 1395 1398 1401 1405 1407 1410 1415 1418 1418 1420 1421 1421 1421 1421 1422 1425 1428 1430 1432 1433 1437 1440 1444 1446 1446 1447 1446 1445 1447 1450 1453 1457 1457 1455 1452 1449 1447 1447 1447 1448 1450 1451 1449 1449 1456 1450 1429 1416 1418 1420 1422 1422 1423 1424 1424 1425 1426 1425 1425 1425 1425 1426 1426
1350 1356 1360 1362 1365 1366 1367 1367 1369 1375 1379 1380 1382 1385 1387 1388 1388 1387 1387 1388 1389 1389 1388 1391 1392 1392 1396 1400 1404 1407 1409 1412 1415 1416 1419 1420 1421 1421 1421 1421 1424 1425 1426 1427 1426 1428 1432 1436 1437 1439 1442 1441 1437 1439 1441 1446 1454 1457 1456 1455 1451 1449 1450 1449 1450 1453 1451 1445 1443 1445 1442 1430 1419 1417 1421 1423 1423 1423 1425 1425 1425 1425 1424 1424 1424 1424 1424 1423
1348 1355 1359 1363 1365 1365 1366 1367 1368 1373 1377 1378 1381 1384 1385 1387 1388 1387 1386 1387 1388 1387 1388 1391 1392 1392 1396 1400 1405 1409 1410 1411 1413 1415 1417 1419 1420 1421 1421 1421 1423 1424 1425 1426 1426 1428 1432 1433 1431 1430 1432 1430 1430 1437 1441 1443 1449 1453 1453 1454 1453 1451 1452 1452 1452 1450 1447 1444 1441 1437 1436 1434 1425 1417 1419 1423 1423 1424 1424 1425 1425 1424 1424 1424 1423 1422 1422 1422
1347 1352 1356 1359 1364 1366 1367 1368 1368 1370 1373 1375 1378 1381 1384 1385 1386 1386 1386 1386 1386 1385 1387 1390 1391 1392 1396 1399 1403 1408 1409 1410 1412 1413 1415 1418 1419 1420 1421 1422 1424 1424 1425 1426 1426 1429 1434 1434 1431 1431 1429 1426 1428 1437 1442 1443 1445 1447 1449 1451 1452 1452 1455 1457 1456 1452 1451 1450 1442 1434 1435 1436 1425 1414 1417 1425 1427 1427 1427 1426 1426 1425 1425 1424 1423 1422 1421 1421
1346 1351 1353 1354 1358 1362 1364 1366 1366 1368 1370 1372 1375 1378 1381 1383 1384 1384 1385 1385 1385 1384 1385 1389 1391 1391 1392 1393 1398 1405 1408 1411 1414 1415 1415 1417 1418 1420 1422 1423 1425 1424 1425 1427 1427 1429 1432 1433 1431 1432 1432 1429 1430 1436 1439 1441 1443 1444 1445 1446 1447 1450 1454 1455 1453 1453 1456 1455 1448 1446 1447 1441 1430 1420 1421 1428 1431 1430 1430 1429 1428 1427 1427 1426 1425 1423 1421 1420
1345 1349 1353 1355 1356 1359 1361 1363 1365 1368 1370 1373 1375 1377 1378 1380 1382 1382 1383 1384 1385 1384 1384 1386 1389 1391 1392 1391 1393 1400 1404 1405 1409 1413 1413 1414 1416 1418 1420 1423 1424 1424 1424 1427 1428 1428 1431 1432 1431 1434 1435 1432 1433 1438 1439 1441 1443 1443 1443 1443 1444 1446 1449 1449 1448 1450 1453 1453 1452 1454 1453 1446 1438 1430 1426 1429 1431 1430 1429 1430 1428 1427 1426 1425 1424 1422 1420 1418
1343 1346 1350 1354 1358 1360 1361 1364 1366 1368 1371 1373 1374 1375 1376 1378 1380 1381 1382 1383 1384 1384 1383 1382 1385 1389 1391 1391 1390 1393 1395 1393 1397 1403 1407 1411 1414 1415 1416 1418 1420 1422 1424 1427 1428 1429 1431 1431 1430 1434 1436 1433 1434 1438 1440 1441 1442 1442 1442 1443 1443 1445 1446 1447 1447 1448 1451 1451 1451 1454 1453 1446 1437 1429 1424 1424 1428 1428 1427 1429 1428 1426 1425 1424 1422 1420 1419 1417
1341 1343 1345 1350 1358 1363 1363 1365 1366 1368 1372 1373 1373 1374 1374 1375 1378 1380 1383 1383 1382 1382 1382 1381 1384 1389 1391 1391 1390 1390 1391 1391 1392 1395 1399 1402 1405 1408 1411 1412 1415 1420 1423 1426 1428 1429 1431 1432 1432 1435 1436 1432 1431 1435 1438 1439 1440 1439 1439 1440 1441 1441 1442 1442 1443 1443 1443 1444 1447 1450 1449 1442 1434 1429 1423 1417 1419 1425 1425 1424 1426 1425 1423 1423 1422 1420 1419 1418
1341 1344 1345 1348 1358 1364 1364 1365 1367 1368 1370 1371 1371 1372 1373 1374 1377 1379 1381 1383 1382 1382 1382 1381 1382 1386 1390 1390 1389 1389 1390 1392 1393 1395 1399 1400 1401 1404 1407 1409 1411 1415 1419 1424 1427 1428 1430 1432 1433 1434 1432 1429 1429 1432 1435 1438 1438 1434 1430 1429 1432 1434 1436 1437 1438 1437 1436 1437 1442 1443 1439 1434 1432 1431 1426 1416 1414 1420 1421 1420 1422 1422 1421 1422 1422 1420 1419 1418